P/2007 Q2 ( Gilmore )

Japanese version
Home page
Total 5,708 html files since Dec. 4, 1995
Updated on December 30, 2007

---------------------------------------------------------------------

* Profile

Discovery Date August 22, 2007
Magnitude 19.1 mag
Discoverer Alan C. Gilmore (Mount John University Observatory)

* Pictures

* Orbital Elements

Epoch 2007 Aug. 8.0 TT = JDT 2454320.5
T 2007 Aug. 23.87738 TT                                 MPC
q   1.8390170            (2000.0)            P               Q
n   0.07449956     Peri.  163.14832     +0.90984005     +0.41426614
a   5.5937139      Node   172.24912     -0.39826734     +0.88800310
e   0.6712351      Incl.   10.23841     -0.11650839     +0.19958473
P  13.23

* Magnitudes Graph

        m1 = 16.5 + 5 log d + 10.0 log r

---------------------------------------------------------------------

The orbital elements are published on M.P.E.C. 2007-U58.
The magnitudes graphs are made with Comet for Windows.

---------------------------------------------------------------------

Copyright(C) 1995-2007 Seiichi Yoshida (comet@aerith.net). All rights reserved.